[[{"header":{"parameterUnit":"m.s-1","parameterCategory":1,"la1":30.2991,"la2":30.254,"lo1":-89.0895,"lo2":-89.0444,"dy":0.0017,"dx":0.0017,"nx":28,"ny":28,"refTime":"2024-04-22T21:00:00:Z","depth":0,"parameterNumber":2,"parameterNumberName":"U-component_of_WINDS"},"data":[0,0,0,0,0,0,0,0,0,0,0,0,0,0,0,0,0,0,0,0,0,0,0,0,0,0,0,0,0,0,0,0,0,0,0,0,0,0,0,0,0,0,0,0,0,0,0,0,0,0,0,0,0,0,0,0,0,0,-3.9589,-3.959,0,-3.9676,-3.9677,-3.9678,-3.9606,-3.9603,-3.96,-3.9597,-3.9684,-3.9689,-3.9694,0,0,0,0,0,0,0,0,0,0,0,0,0,-3.9356,-3.936,-3.9589,-3.959,-3.9591,-3.9676,-3.9677,-3.9679,-3.9606,-3.9603,-3.9599,-3.9596,-3.9682,-3.9689,-3.9695,0,0,0,0,0,0,0,0,0,0,0,0,0,-3.9451,-3.9362,-3.9589,-3.9565,-3.9564,-3.9676,-3.9677,-3.9679,-3.9607,-3.9603,-3.9598,-3.9594,-3.968,-3.9688,-3.9696,-3.9834,0,0,-3.9719,-3.9723,0,0,0,0,0,0,0,0,-3.9446,-3.946,-3.9568,-3.9567,-3.9566,-3.9626,-3.9627,-3.9731,-3.9608,-3.9591,-3.9597,-3.9592,-3.9668,-3.9677,-3.9703,-3.9838,-3.9842,-3.972,-3.9725,-3.9728,-3.973,0,0,0,0,0,0,0,-3.944,-3.9456,-3.9623,-3.9569,-3.9568,-3.9549,-3.9558,-3.9646,-3.9654,-3.9592,-3.9587,-3.9598,-3.9667,-3.9696,-3.9704,-3.9843,-3.972,-3.9727,-3.9731,-3.9734,-4.0094,-4.0099,0,0,0,0,0,0,-3.9436,-3.9451,-3.962,-3.9626,-3.9494,-3.9557,-3.9567,-3.9611,-3.9653,-3.9655,-3.9602,-3.9595,-3.9685,-3.9696,-3.9707,-3.987,-3.9728,-3.9735,-3.9739,-4.0089,-4.0095,-4.0101,0,0,0,0,0,0,-3.9431,-3.9452,-3.9617,-3.9537,-3.9557,-3.9566,-3.9616,-3.9615,-3.9644,-3.966,-3.9661,-3.963,-3.9682,-3.9696,-3.9803,-3.9872,-3.9739,-3.9746,-4.0083,-4.0091,-4.0098,-4.0198,0,0,0,0,0,0,-3.9425,-3.945,-3.9504,-3.9539,-3.9561,-3.9712,-3.9621,-3.962,-3.9658,-3.9649,-3.9687,-3.9689,-3.9679,-3.9792,-3.981,-3.988,-3.9752,-4.0077,-4.0087,-4.0096,-4.0188,-4.0208,-4.0224,0,0,0,0,0,-3.9417,-3.9529,-3.9507,-3.9528,-3.9629,-3.9716,-3.9729,-3.9716,-3.9664,-3.9717,-3.9727,-3.9688,-3.9862,-3.9803,-3.9824,-3.9897,-4.0073,-4.0084,-4.0095,-4.018,-4.0204,-4.0224,0,0,0,0,0,0,-3.9501,-3.9533,-3.9509,-3.9636,-3.9674,-3.9704,-3.977,-3.9742,-3.9795,-3.9784,-3.9765,-3.9774,-3.9886,-3.9902,-3.9836,-4.0032,-3.9959,-3.9975,-4.0017,-4.0039,-4.0057,-4.0049,-3.9758,0,0,0,0,0,-3.9534,-3.9604,-3.9628,-3.9737,-3.9758,-3.9761,-3.9799,-3.9786,-3.9824,-3.9839,-3.9858,-3.9896,-3.9958,-4.0,-4.0059,-4.0191,-4.0197,-4.0252,-4.027,-4.0284,-4.0297,-4.0365,-4.0389,-4.0137,-4.0137,-4.0137,0,0,-3.9604,-3.963,-3.9675,-3.9755,-3.9783,-3.9854,-3.9775,-3.9854,-3.9906,-3.9851,-3.9952,-3.9967,-4.0008,-4.0127,-4.018,-4.0144,-4.0368,-4.0298,-4.031,-4.0315,-4.0379,-4.0403,-4.0424,-4.0144,-4.0143,-4.0142,0,0,-3.9766,-3.9794,-3.9887,-3.9917,-3.996,-3.9962,-3.9984,-4.0019,-4.0026,-4.0128,-4.0087,-4.0149,-4.0259,-4.0288,-4.0318,-4.0491,-4.0456,-4.0512,-4.0604,-4.0671,-4.0691,-4.0708,-4.0767,-4.0788,-4.0525,-4.0525,-4.0525,0,-3.9846,-3.9952,-3.9938,-4.002,-4.0055,-4.001,-4.0103,-4.0132,-4.0192,-4.0217,-4.0176,-4.0312,-4.0336,-4.046,-4.0503,-4.0529,-4.0552,-4.0505,-4.0689,-4.0707,-4.0722,-4.0778,-4.0801,-4.0531,-4.0531,-4.053,-4.0529,0,-4.0047,-4.0122,-4.0192,-4.0251,-4.0294,-4.0382,-4.0379,-4.0425,-4.0408,-4.0414,-4.0516,-4.0545,-4.0607,-4.0636,-4.0621,-4.0758,-4.0734,-4.0692,-4.0617,-4.0753,-4.0805,-4.0826,-4.054,-4.0538,-4.0536,-4.0535,0,0,-4.0263,-4.0314,-4.0339,-4.0365,-4.0409,-4.0466,-4.055,-4.0612,-4.065,-4.0694,-4.0762,-4.0856,-4.0817,-4.0851,-4.0838,-4.0898,-4.1029,-4.0848,-4.0848,-4.0878,-4.1179,-4.1208,-4.1233,-4.1008,-4.1012,-4.1015,-4.1174,0,-4.0424,-4.0571,-4.0561,-4.0699,-4.0765,-4.0724,-4.0797,-4.0831,-4.0839,-4.0896,-4.0904,-4.097,-4.0915,-4.0934,-4.0991,-4.1001,-4.1089,-4.099,-4.1069,-4.1072,-4.1056,-4.126,-4.1292,-4.144,-4.1195,-4.1198,-4.1201,0,-4.0632,-4.0682,-4.0827,-4.086,-4.0887,-4.0953,-4.1008,-4.1064,-4.1102,-4.1103,-4.1141,-4.1119,-4.1202,-4.1128,-4.1241,-4.1174,-4.1206,-4.1216,-4.1221,-4.1225,-4.1142,-4.1267,-4.1488,-4.1509,-4.1233,-4.1231,-4.1228,0,-4.077,-4.0875,-4.0974,-4.0997,-4.1039,-4.1086,-4.1106,-4.1139,-4.1177,-4.1225,-4.1248,-4.1306,-4.1337,-4.1381,-4.1374,-4.1322,-4.1489,-4.1415,-4.149,-4.149,-4.1524,-4.1521,-4.175,-4.1551,-4.155,-4.155,-4.155,0,-4.0949,-4.1038,-4.1036,-4.1097,-4.1195,-4.1182,-4.1279,-4.1293,-4.1324,-4.1385,-4.1354,-4.1412,-4.1401,-4.1459,-4.1454,-4.1547,-4.1562,-4.1564,-4.1561,-4.1565,-4.1564,-4.1582,-4.1571,-4.1556,-4.1555,-4.1553,-4.1552,0,-4.1119,-4.1122,-4.1226,-4.1258,-4.1268,-4.1338,-4.1364,-4.1421,-4.1426,-4.1504,-4.1522,-4.153,-4.1596,-4.1595,-4.1671,-4.1667,-4.178,-4.1767,-4.1767,-4.1763,-4.1837,-4.1828,-4.2082,-4.2114,-4.1898,-4.19,-4.1902,0,-4.1231,-4.1299,-4.1337,-4.1376,-4.1399,-4.1463,-4.1501,-4.1491,-4.1532,-4.158,-4.163,-4.1694,-4.1743,-4.1851,-4.1863,-4.192,-4.1906,-4.1991,-4.1914,-4.1915,-4.1903,-4.1898,-4.1903,-4.2005,-4.2008,-4.201,-4.2011,0,-4.1429,-4.1427,-4.1483,-4.154,-4.1586,-4.1631,-4.1671,-4.1705,-4.1699,-4.1746,-4.1814,-4.1853,-4.193,-4.1992,-4.2047,-4.2066,-4.2037,-4.2036,-4.2055,-4.2058,-4.2054,-4.2054,-4.1804,-4.2029,-4.2027,-4.2026,-4.2025,-4.2024,-4.1571,-4.1628,-4.1664,-4.1727,-4.1757,-4.1795,-4.1849,-4.1862,-4.1918,-4.198,-4.1971,-4.2046,-4.2081,-4.2152,-4.2176,-4.2233,-4.2203,-4.2232,-4.2239,-4.2245,-4.2252,-4.2048,-4.2243,-4.2243,-4.2242,-4.2242,-4.2242,0,-4.1764,-4.1785,-4.1844,-4.1901,-4.1951,-4.1921,-4.1964,-4.2007,-4.2073,-4.2109,-4.2159,-4.2236,-4.2296,-4.2313,-4.2371,-4.2414,-4.2402,-4.2429,-4.2424,-4.2428,-4.2277,-4.2253,-4.2438,-4.2438,-4.2438,-4.2437,-4.2437,-4.2437,-4.187,-4.1964,-4.1967,-4.2074,-4.2095,-4.2168,-4.2195,-4.2229,-4.2257,-4.2344,-4.2395,-4.2406,-4.2433,-4.2493,-4.2547,-4.255,-4.2571,-4.2603,-4.2601,-4.2459,-4.2439,-4.242,-4.2397,-4.2609,-4.2609,-4.2746,-4.2748,-4.2749]},{"header":{"parameterUnit":"m.s-1","parameterCategory":1,"la1":30.2991,"la2":30.254,"lo1":-89.0895,"lo2":-89.0444,"dy":0.0017,"dx":0.0017,"nx":28,"ny":28,"refTime":"2024-04-22T21:00:00:Z","depth":0,"parameterNumber":3,"parameterNumberName":"V-component_of_WINDS"},"data":[0,0,0,0,0,0,0,0,0,0,0,0,0,0,0,0,0,0,0,0,0,0,0,0,0,0,0,0,0,0,0,0,0,0,0,0,0,0,0,0,0,0,0,0,0,0,0,0,0,0,0,0,0,0,0,0,0,0,-1.305,-1.3051,0,-1.3101,-1.3102,-1.3102,-1.3126,-1.3126,-1.3126,-1.3126,-1.3178,-1.3179,-1.318,0,0,0,0,0,0,0,0,0,0,0,0,0,-1.2972,-1.2973,-1.305,-1.3051,-1.3052,-1.3101,-1.3102,-1.3102,-1.3126,-1.3126,-1.3126,-1.3126,-1.3177,-1.3179,-1.3181,0,0,0,0,0,0,0,0,0,0,0,0,0,-1.3013,-1.2974,-1.305,-1.3069,-1.3071,-1.3101,-1.3102,-1.3103,-1.3126,-1.3126,-1.3126,-1.3126,-1.3177,-1.3179,-1.3181,-1.3195,0,0,-1.3187,-1.3188,0,0,0,0,0,0,0,0,-1.301,-1.3016,-1.3066,-1.3068,-1.3071,-1.3107,-1.3093,-1.3134,-1.3126,-1.3105,-1.3126,-1.3126,-1.3154,-1.3158,-1.3168,-1.3197,-1.32,-1.3187,-1.3189,-1.319,-1.319,0,0,0,0,0,0,0,-1.3007,-1.3013,-1.307,-1.3066,-1.3069,-1.3075,-1.3081,-1.3101,-1.3129,-1.3107,-1.3109,-1.3115,-1.3155,-1.3166,-1.3169,-1.32,-1.3187,-1.3189,-1.3191,-1.3191,-1.3242,-1.3243,0,0,0,0,0,0,-1.3002,-1.3011,-1.3069,-1.3072,-1.304,-1.3076,-1.3083,-1.3095,-1.3129,-1.3134,-1.3115,-1.3116,-1.3162,-1.3167,-1.3171,-1.3189,-1.319,-1.3192,-1.3193,-1.3242,-1.3242,-1.3243,0,0,0,0,0,0,-1.3,-1.3007,-1.3067,-1.3042,-1.305,-1.3078,-1.3092,-1.3097,-1.3107,-1.3135,-1.314,-1.312,-1.3162,-1.3168,-1.3189,-1.3191,-1.3192,-1.3194,-1.3242,-1.3242,-1.3243,-1.3226,0,0,0,0,0,0,-1.2998,-1.3006,-1.3012,-1.3042,-1.3051,-1.3084,-1.3092,-1.3098,-1.311,-1.3112,-1.3141,-1.3146,-1.3163,-1.3185,-1.3191,-1.3194,-1.3196,-1.3242,-1.3242,-1.3242,-1.3226,-1.3225,-1.3224,0,0,0,0,0,-1.2995,-1.3005,-1.3012,-1.3019,-1.306,-1.3084,-1.3089,-1.3108,-1.3111,-1.3117,-1.3134,-1.3145,-1.319,-1.3187,-1.3193,-1.3198,-1.3242,-1.3242,-1.3242,-1.3226,-1.3225,-1.3224,0,0,0,0,0,0,-1.2975,-1.301,-1.3018,-1.3038,-1.3058,-1.3088,-1.3096,-1.3107,-1.3126,-1.3127,-1.3149,-1.3155,-1.3173,-1.3188,-1.3184,-1.3212,-1.3217,-1.3218,-1.3203,-1.3202,-1.3201,-1.3197,-1.3198,0,0,0,0,0,-1.2973,-1.2991,-1.302,-1.3035,-1.3045,-1.3068,-1.308,-1.3093,-1.3114,-1.3122,-1.3142,-1.3161,-1.318,-1.3192,-1.321,-1.3228,-1.3234,-1.3234,-1.3233,-1.3232,-1.3233,-1.3243,-1.3243,-1.3243,-1.3243,-1.3243,0,0,-1.297,-1.2991,-1.3,-1.3032,-1.3048,-1.3065,-1.3075,-1.3093,-1.3105,-1.3125,-1.3145,-1.316,-1.3183,-1.3202,-1.3211,-1.3214,-1.3234,-1.3232,-1.3232,-1.3233,-1.3243,-1.3243,-1.3243,-1.3243,-1.3243,-1.3243,0,0,-1.2972,-1.299,-1.3004,-1.302,-1.3045,-1.3061,-1.3064,-1.3092,-1.3102,-1.3123,-1.3138,-1.3152,-1.3184,-1.32,-1.3212,-1.3218,-1.3228,-1.3223,-1.3219,-1.3228,-1.3228,-1.3228,-1.3229,-1.323,-1.3224,-1.3224,-1.3224,0,-1.2964,-1.299,-1.301,-1.3026,-1.3039,-1.3057,-1.3071,-1.3086,-1.3116,-1.3124,-1.3127,-1.3166,-1.3183,-1.3206,-1.3207,-1.3216,-1.322,-1.322,-1.3226,-1.3227,-1.3227,-1.3229,-1.3229,-1.3223,-1.3224,-1.3224,-1.3224,0,-1.2979,-1.2997,-1.3006,-1.3033,-1.3047,-1.3062,-1.3084,-1.3095,-1.3106,-1.3121,-1.3141,-1.3162,-1.3185,-1.3191,-1.3203,-1.3215,-1.3216,-1.3222,-1.3227,-1.3226,-1.3228,-1.3229,-1.3222,-1.3223,-1.3223,-1.3223,0,0,-1.2972,-1.3009,-1.3012,-1.3024,-1.3052,-1.3066,-1.3081,-1.3103,-1.3112,-1.3132,-1.3145,-1.317,-1.3176,-1.319,-1.3203,-1.3211,-1.3213,-1.3216,-1.3217,-1.3214,-1.3227,-1.3221,-1.3222,-1.322,-1.322,-1.322,-1.3224,0,-1.2977,-1.3006,-1.3023,-1.3045,-1.3061,-1.3077,-1.309,-1.3109,-1.3123,-1.3138,-1.3153,-1.3171,-1.3178,-1.3186,-1.3194,-1.3211,-1.3216,-1.3211,-1.3232,-1.3232,-1.3225,-1.3223,-1.3218,-1.3221,-1.3225,-1.3226,-1.3226,0,-1.2988,-1.3006,-1.3029,-1.3054,-1.3062,-1.3073,-1.3094,-1.3109,-1.3129,-1.3139,-1.3153,-1.3166,-1.3182,-1.3185,-1.3207,-1.3204,-1.3213,-1.3222,-1.3223,-1.3226,-1.3229,-1.3225,-1.3223,-1.3223,-1.3227,-1.3227,-1.3227,0,-1.2979,-1.301,-1.3027,-1.3037,-1.3067,-1.3075,-1.3087,-1.3108,-1.3119,-1.3137,-1.3145,-1.3165,-1.3175,-1.319,-1.3207,-1.3208,-1.3227,-1.3232,-1.3235,-1.3234,-1.3239,-1.3238,-1.3237,-1.3245,-1.3245,-1.3245,-1.3245,0,-1.2983,-1.2997,-1.3023,-1.3034,-1.3049,-1.3068,-1.3083,-1.3097,-1.3114,-1.3127,-1.3143,-1.3155,-1.3177,-1.3191,-1.3205,-1.3221,-1.3225,-1.3233,-1.3237,-1.3232,-1.3231,-1.3238,-1.3238,-1.3245,-1.3245,-1.3245,-1.3245,0,-1.2976,-1.2995,-1.3015,-1.3041,-1.3048,-1.3058,-1.308,-1.309,-1.3105,-1.3121,-1.3126,-1.3148,-1.3166,-1.3185,-1.3209,-1.3218,-1.3233,-1.3238,-1.3226,-1.3228,-1.3229,-1.3229,-1.3233,-1.3234,-1.3241,-1.3241,-1.3241,0,-1.2978,-1.2988,-1.3015,-1.3025,-1.3037,-1.3053,-1.3065,-1.3084,-1.3095,-1.3118,-1.3126,-1.3145,-1.3161,-1.3188,-1.3206,-1.3224,-1.323,-1.323,-1.3233,-1.3227,-1.3229,-1.3228,-1.3229,-1.3229,-1.3229,-1.3229,-1.3229,0,-1.2978,-1.2987,-1.3003,-1.3022,-1.3036,-1.3052,-1.3068,-1.3075,-1.3097,-1.3109,-1.3127,-1.314,-1.3164,-1.3182,-1.3202,-1.3215,-1.3225,-1.3228,-1.3229,-1.3224,-1.3217,-1.322,-1.3223,-1.3227,-1.3228,-1.3228,-1.3228,-1.3228,-1.2976,-1.2985,-1.3005,-1.3023,-1.3037,-1.3052,-1.3063,-1.3078,-1.3093,-1.3114,-1.3124,-1.3142,-1.3161,-1.3189,-1.3201,-1.3215,-1.3218,-1.3221,-1.3221,-1.3221,-1.322,-1.3214,-1.3219,-1.3219,-1.3219,-1.3219,-1.3219,0,-1.2976,-1.299,-1.3006,-1.3028,-1.3041,-1.305,-1.3068,-1.3078,-1.3094,-1.3111,-1.3126,-1.3146,-1.3163,-1.3182,-1.32,-1.3208,-1.3213,-1.3212,-1.3211,-1.3214,-1.3216,-1.3213,-1.3207,-1.3207,-1.3207,-1.3207,-1.3207,-1.3207,-1.2979,-1.2995,-1.3005,-1.3028,-1.3042,-1.3059,-1.3069,-1.3082,-1.3096,-1.3117,-1.3132,-1.3144,-1.3161,-1.318,-1.3196,-1.3201,-1.3207,-1.3205,-1.3211,-1.3213,-1.3214,-1.3215,-1.3212,-1.3206,-1.3206,-1.3208,-1.3208,-1.3208]}]]